Location: Eastchurch
(51.4000°N, 0.8667°E)
Time: 00:13:13
(UTC+00:00)

Cosmos 1833 Rocket - Pass Details

Date: 19 January 2026
Orbit: 832 x 838 km, 71.0° (Epoch: 18 February)

Event Time Altitude Azimuth Distance (km) Brightness Sun altitude
Rises 18:46:25 0° 205° (SSW) 3,379 6.3 -21.7°
Reaches altitude 10° 18:48:51 10° 205° (SSW) 2,448 5.5 -22.0°
Maximum altitude 18:54:29 84° 119° (ESE) 850 2.6 -22.9°
Enters shadow 18:56:42 39° 33° (NNE) 1,248 3.3 -23.3°
